Flag for Germany Weather past 2 weeks in Fürth, Bavaria, Germany

37 °F


Feels Like: 37 °F
Forecast: 29 / 39 °F
Wind: No wind

Location: Nuernberg

Current Time: Nov 26, 2015 at 2:14:22 AM

Latest Report: Nov 26, 2015 at 1:20 AM

Visibility: 3 mi

Pressure: 29.74 "Hg

Humidity: 93%

Dew point: 36 °F

Location of FürthLocation

Historic Weather in Fürth — Graph


Fürth temperature yesterday

Maximum temperature yesterday: 37 °F (at 12:50 PM)
Minimum temperature yesterday: 32 °F (at 12:20 AM)
Average temperature yesterday: 35 °F

Past Weeks' High & Low Weather Summary

High61 °F (Nov 11, 1:20 PM)100% (Nov 12, 11:50 PM)30.39 "Hg (Nov 12, 11:50 PM)
Low30 °F (Nov 23, 1:20 AM)31% (Nov 16, 1:20 PM)29.42 "Hg (Nov 21, 12:20 PM)
Average45 °F82%30.01 "Hg
* Reported Nov 11 12:20 AM — Nov 26 12:50 AM, Fürth, Weather by CustomWeather, © 2015

Note: Actual official high and low records may vary slightly from our data, if they occured in-between our weather recording intervals... More about our weather records


Fürth weather history for previous 24 hours

Time TempWeatherWind HumidityBarometerVisibility
12:50 AM
Thu, Nov 26
37 °FPassing clouds.1 mph93%29.74 "Hg3 mi
12:20 AM37 °FLight rain. Passing clouds.1 mph93%29.74 "Hg3 mi
11:50 PM
Wed, Nov 25
36 °FLight rain. Partly cloudy.1 mph100%29.74 "Hg4 mi
11:20 PM36 °FPartly cloudy.2 mph100%29.74 "Hg6 mi
10:50 PM37 °FFog.1 mph93%29.74 "Hg6 mi
10:20 PM36 °FPassing clouds.1 mph100%29.74 "Hg6 mi
9:50 PM37 °FPassing clouds.2 mph93%29.74 "Hg6 mi
9:20 PM37 °FPassing clouds.1 mph93%29.74 "Hg6 mi
8:50 PM37 °FPassing clouds.1 mph93%29.74 "HgN/A
8:20 PM37 °FPartly cloudy.3 mph93%29.74 "HgN/A
7:50 PM37 °FMostly cloudy.2 mph93%29.74 "HgN/A
7:20 PM37 °FLight rain. Passing clouds.2 mph93%29.71 "HgN/A
6:50 PM36 °FLight rain. Passing clouds.2 mph100%29.71 "HgN/A
6:20 PM36 °FLight rain. Passing clouds.7 mph93%29.71 "HgN/A
5:50 PM37 °FLight rain. Passing clouds.6 mph93%29.71 "HgN/A
5:20 PM37 °FLight rain. Passing clouds.9 mph93%29.71 "HgN/A
4:50 PM37 °FLight rain. Clear.5 mph93%29.71 "HgN/A
4:20 PM37 °FChilly.3 mph93%29.71 "HgN/A
3:50 PM37 °FLight rain. Partly sunny.2 mph93%29.71 "HgN/A
3:20 PM37 °FPartly sunny.5 mph93%29.71 "HgN/A
2:50 PM37 °FPartly sunny.5 mph93%29.71 "HgN/A
2:20 PM37 °FPartly sunny.6 mph93%29.71 "HgN/A
1:50 PM37 °FPartly sunny.7 mph93%29.71 "HgN/A
1:20 PM37 °FLight rain. Partly sunny.7 mph93%29.74 "HgN/A
12:50 PM37 °FLight rain. Broken clouds.6 mph93%29.74 "Hg5 mi
12:20 PM36 °FLight rain. More clouds than sun.3 mph93%29.74 "Hg6 mi
11:50 AM36 °FMore clouds than sun.6 mph93%29.77 "Hg6 mi
11:20 AM36 °FLight snow. More clouds than sun.5 mph93%29.77 "Hg4 mi
10:50 AM36 °FLight snow. More clouds than sun.6 mph93%29.77 "Hg5 mi
10:20 AM36 °FLight snow. More clouds than sun.5 mph93%29.77 "Hg5 mi
9:50 AM34 °FLight snow. Partly sunny.6 mph100%29.77 "Hg5 mi
9:20 AM34 °FPartly sunny.5 mph100%29.77 "Hg5 mi
8:50 AM34 °FLight snow. Partly sunny.3 mph100%29.77 "Hg4 mi
8:20 AM34 °FLight snow. Mostly cloudy.3 mph93%29.80 "Hg4 mi
7:50 AM34 °FLight snow. More clouds than sun.3 mph93%29.80 "Hg4 mi
7:20 AM32 °FLight snow. Mostly cloudy.3 mph100%29.80 "Hg4 mi
6:50 AM32 °FLight snow. Mostly cloudy.3 mph100%29.80 "Hg4 mi
6:20 AM32 °FLight snow. Ice fog.5 mph100%29.80 "Hg3 mi
5:50 AM32 °FLight snow. Ice fog.5 mph100%29.80 "Hg2 mi
5:20 AM32 °FLight snow. Ice fog.5 mph100%29.80 "Hg2 mi
4:20 AM32 °FLight snow. Partly cloudy.6 mph93%29.83 "Hg2 mi
3:50 AM32 °FLight snow. Passing clouds.6 mph93%29.83 "Hg2 mi
3:20 AM32 °FSnow. Partly cloudy.6 mph93%29.83 "Hg2 mi
2:50 AM32 °FLight snow. Partly cloudy.6 mph93%29.83 "Hg2 mi
2:20 AM32 °FLight snow. Passing clouds.7 mph93%29.86 "Hg2 mi
Weather by CustomWeather, © 2015

See weather overviewHow to use our weather pages